Location: Newark
(50.0306°N, 2.3272°E)
Time: 15:01:42
(UTC+00:00)

Transit 2A Rocket - Pass Details

Date: 07 December 2019
Orbit: 593 x 910 km, 66.7° (Epoch: 27 January)

Event Time Altitude Azimuth Distance (km) Brightness Sun altitude
Rises 02:00:05 0° 319° (NW) 2,860 - -51.5°
Reaches altitude 10° 02:02:20 10° 314° (NW) 1,973 - -51.2°
Maximum altitude 02:06:36 49° 240° (WSW) 822 - -50.6°
Drops below altitude 10° 02:11:07 10° 166° (SSE) 2,091 - -50.0°
Sets 02:13:34 0° 161° (SSE) 3,052 - -49.6°
